DMSP 5D-2 F13 DEB

Satellite information

Favourite Embed

Satellite Type and Status

DEBRISIN ORBIT

Key statistics

Satellite DMSP 5D-2 F13 DEB at a glance.

Uptime

11118

Days in orbit

Revolutions

≈ 14.0

Per day

Orbit

SSO

Sun Synchronous Orbit

Inclination

98.8

Latest

Satellite identification and parameters

Extended collection of information and parameters for DMSP 5D-2 F13 DEB.

Object identification

Identified? True

Debris? True

Object name: DMSP 5D-2 F13 DEB

International designator: 1995-015GD

Object number (NORAD): 42263

Object ID (CCSDS): 42263

Country: UNITED STATES OF AMERICA (US)

Current information (Y/N): Y

RCS size: SMALL

Orbital parameters

Period: 102.966 minutes

Inclination: 98.7619 deg

SMA: 7277.039 km

Apoapsis: 980.98 km

Periapsis: 816.828 km

RAAN: 80.7375 deg

Eccentricy: 0.01127877

Argument of periapsis: 176.6566 deg

Mean anomaly: 183.5377 deg

Mean motion: 13.98526475 rev/day

Mean motion (dot): 0.00001112 rev/day2

B* drag term: 0.0007622475 1/REarth

Two-line elements (TLE)

Creation date: Aug. 7, 2025, 10:50 p.m.

Reference frame: TEME

Reference center: EARTH

Epoch: Aug. 7, 2025, 1:58 a.m. UTC

TLE line 0: 0 DMSP 5D-2 F13 DEB

TLE line 1: 1 42263U 95015GD 25219.08249477 .00001112 00000-0 76225-3 0 9997

TLE line 2: 2 42263 98.7619 80.7375 0112788 176.6566 183.5377 13.98526475524277

Live tracking on map

Real-time ground track for satellite DMSP 5D-2 F13 DEB.

In-orbit conjunctions

A list of the most updated potential collisions computed for object DMSP 5D-2 F13 DEB.

Target Orbit TCA Probability of collision Miss distance Type
DMSP 5D-2 F13 DEB SSO 2025-07-16 14:16:00 0.0001070511 406.0 (m) DEBRIS
METEOR 2-2 LEO 2025-04-11 22:06:51 0.0005777975 168.0 (m) PAYLOAD
COSMOS 2297 LEO 2024-10-09 05:57:18 0.0002071708 106.0 (m) PAYLOAD

Associated space launch

Military meteorological satellite

DMSP 5D-2 F13 DEB was lifted into orbit during the mission ‘Atlas E | DMSP-5D2 F13’, on board a Atlas E space rocket.

The launch took place on March 24, 1995, 2:05 p.m. from Space Launch Complex 3W.

For more information about the launch, click the button.

Launch to space Atlas E | DMSP-5D2 F13
Atlas E | DMSP-5D2 F13

Agency: N/A

Status: Launch Successful

Launch date: March 24, 1995, 2:05 p.m. UTC

Rocket: Atlas E

Launch pad: Space Launch Complex 3W

Location: Vandenberg SFB, CA, USA

...

Latest news about this satellite

There are no fresh news available about this satellite. Check back as we update our databases every day.


Newsletter sign-up

Weekly statistics, charts and insights to help you stay on top of the space industry.